Time,TemperatureF,DewpointF,PressureIn,WindDirection,WindDirectionDegrees,WindSpeedMPH,WindSpeedGustMPH,Humidity,HourlyPrecipIn,Conditions,Clouds,dailyrainin,SoftwareType,DateUTC
2013-04-04 00:00:00,41.4,32.3,30.04,West,277,0.0,1.0,70,0.00,,,0.00,Wunderground v.1.15,2013-04-04 06:00:00,
2013-04-04 00:06:00,41.5,32.4,30.04,West,277,0.0,1.0,70,0.00,,,0.00,Wunderground v.1.15,2013-04-04 06:06:00,
2013-04-04 00:12:00,40.9,32.2,30.04,West,277,0.0,3.0,71,0.00,,,0.00,Wunderground v.1.15,2013-04-04 06:12:00,
2013-04-04 00:17:00,40.3,32.3,30.04,West,277,1.0,3.0,73,0.00,,,0.00,Wunderground v.1.15,2013-04-04 06:17:00,
2013-04-04 00:22:00,40.1,32.5,30.04,West,277,0.0,2.0,74,0.00,,,0.00,Wunderground v.1.15,2013-04-04 06:22:00,
2013-04-04 00:28:00,39.8,31.8,30.04,West,277,1.0,2.0,73,0.00,,,0.00,Wunderground v.1.15,2013-04-04 06:28:00,
2013-04-04 00:34:00,40.2,32.6,30.04,West,277,1.0,1.0,74,0.00,,,0.00,Wunderground v.1.15,2013-04-04 06:34:00,
2013-04-04 00:40:00,40.5,32.5,30.04,NNE,32,1.0,1.0,73,0.00,,,0.00,Wunderground v.1.15,2013-04-04 06:40:00,
2013-04-04 00:45:00,39.0,31.4,30.04,NNE,32,1.0,1.0,74,0.00,,,0.00,Wunderground v.1.15,2013-04-04 06:45:00,
2013-04-04 00:52:00,38.2,31.3,30.04,NNE,32,0.0,1.0,76,0.00,,,0.00,Wunderground v.1.15,2013-04-04 06:52:00,
2013-04-04 00:58:00,38.6,32.0,30.03,NNE,32,0.0,1.0,77,0.00,,,0.00,Wunderground v.1.15,2013-04-04 06:58:00,
2013-04-04 01:03:00,39.2,31.9,30.03,NNE,32,0.0,1.0,75,0.00,,,0.00,Wunderground v.1.15,2013-04-04 07:03:00,
2013-04-04 01:08:00,38.6,31.7,30.04,NNE,32,0.0,1.0,76,0.00,,,0.00,Wunderground v.1.15,2013-04-04 07:08:00,
2013-04-04 01:13:00,38.1,31.8,30.04,NNE,32,0.0,1.0,78,0.00,,,0.00,Wunderground v.1.15,2013-04-04 07:13:00,
2013-04-04 01:19:00,38.3,32.0,30.04,NNE,32,0.0,1.0,78,0.00,,,0.00,Wunderground v.1.15,2013-04-04 07:19:00,
2013-04-04 01:25:00,38.2,32.3,30.04,NNE,32,0.0,2.0,79,0.00,,,0.00,Wunderground v.1.15,2013-04-04 07:25:00,
2013-04-04 01:30:00,38.7,32.4,30.04,NNE,32,0.0,1.0,78,0.00,,,0.00,Wunderground v.1.15,2013-04-04 07:30:00,
2013-04-04 01:36:00,39.2,32.6,30.04,NNE,32,0.0,1.0,77,0.00,,,0.00,Wunderground v.1.15,2013-04-04 07:36:00,
2013-04-04 01:42:00,38.6,32.0,30.04,NNE,32,0.0,1.0,77,0.00,,,0.00,Wunderground v.1.15,2013-04-04 07:42:00,
2013-04-04 01:48:00,37.3,31.1,30.04,NNE,32,0.0,1.0,78,0.00,,,0.00,Wunderground v.1.15,2013-04-04 07:48:00,
2013-04-04 01:53:00,36.8,30.9,30.04,NNE,32,0.0,1.0,79,0.00,,,0.00,Wunderground v.1.15,2013-04-04 07:53:00,
2013-04-04 01:59:00,37.5,31.9,30.04,NNE,32,0.0,1.0,80,0.00,,,0.00,Wunderground v.1.15,2013-04-04 07:59:00,
2013-04-04 02:04:00,37.9,32.0,30.04,NNE,32,0.0,1.0,79,0.00,,,0.00,Wunderground v.1.15,2013-04-04 08:04:00,
2013-04-04 02:09:00,37.9,31.7,30.04,NNE,32,0.0,1.0,78,0.00,,,0.00,Wunderground v.1.15,2013-04-04 08:09:00,
2013-04-04 02:14:00,37.5,31.9,30.05,NNE,32,0.0,1.0,80,0.00,,,0.00,Wunderground v.1.15,2013-04-04 08:14:00,
2013-04-04 02:19:00,37.2,31.6,30.05,NNE,32,0.0,1.0,80,0.00,,,0.00,Wunderground v.1.15,2013-04-04 08:19:00,
2013-04-04 02:25:00,37.0,31.7,30.04,NNE,32,0.0,1.0,81,0.00,,,0.00,Wunderground v.1.15,2013-04-04 08:25:00,
2013-04-04 02:30:00,37.7,32.4,30.04,NNE,32,0.0,1.0,81,0.00,,,0.00,Wunderground v.1.15,2013-04-04 08:30:00,
2013-04-04 02:37:00,37.1,31.2,30.04,NNE,32,0.0,1.0,79,0.00,,,0.00,Wunderground v.1.15,2013-04-04 08:37:00,
2013-04-04 02:43:00,36.1,30.8,30.04,NNE,32,0.0,1.0,81,0.00,,,0.00,Wunderground v.1.15,2013-04-04 08:43:00,
2013-04-04 02:48:00,36.2,31.2,30.04,NNE,32,0.0,1.0,82,0.00,,,0.00,Wunderground v.1.15,2013-04-04 08:48:00,
2013-04-04 02:54:00,37.1,32.1,30.04,NNE,32,0.0,1.0,82,0.00,,,0.00,Wunderground v.1.15,2013-04-04 08:54:00,
2013-04-04 03:00:00,37.7,32.4,30.04,NNE,32,0.0,1.0,81,0.00,,,0.00,Wunderground v.1.15,2013-04-04 09:00:00,
2013-04-04 03:05:00,37.7,32.4,30.04,NNE,32,0.0,1.0,81,0.00,,,0.00,Wunderground v.1.15,2013-04-04 09:05:00,
2013-04-04 03:10:00,36.8,31.2,30.04,NNE,32,0.0,1.0,80,0.00,,,0.00,Wunderground v.1.15,2013-04-04 09:10:00,
2013-04-04 03:15:00,35.6,30.3,30.04,NNE,32,0.0,1.0,81,0.00,,,0.00,Wunderground v.1.15,2013-04-04 09:15:00,
2013-04-04 03:20:00,35.2,30.6,30.04,NNE,32,0.0,1.0,83,0.00,,,0.00,Wunderground v.1.15,2013-04-04 09:20:00,
2013-04-04 03:26:00,35.5,31.1,30.04,NNE,32,0.0,1.0,84,0.00,,,0.00,Wunderground v.1.15,2013-04-04 09:26:00,
2013-04-04 03:32:00,35.5,31.1,30.04,NNE,32,0.0,1.0,84,0.00,,,0.00,Wunderground v.1.15,2013-04-04 09:32:00,
2013-04-04 03:37:00,35.3,30.9,30.04,NNE,32,0.0,1.0,84,0.00,,,0.00,Wunderground v.1.15,2013-04-04 09:37:00,
2013-04-04 03:42:00,34.8,30.5,30.04,NNE,32,0.0,1.0,84,0.00,,,0.00,Wunderground v.1.15,2013-04-04 09:42:00,
2013-04-04 03:48:00,34.4,30.4,30.04,NNE,32,0.0,1.0,85,0.00,,,0.00,Wunderground v.1.15,2013-04-04 09:48:00,
2013-04-04 03:53:00,34.8,31.0,30.04,NNE,32,0.0,1.0,86,0.00,,,0.00,Wunderground v.1.15,2013-04-04 09:53:00,
2013-04-04 03:59:00,35.0,30.9,30.04,NNE,32,0.0,1.0,85,0.00,,,0.00,Wunderground v.1.15,2013-04-04 09:59:00,
2013-04-04 04:05:00,35.1,31.0,30.04,NNE,32,0.0,1.0,85,0.00,,,0.00,Wunderground v.1.15,2013-04-04 10:05:00,
2013-04-04 04:10:00,35.2,31.4,30.04,NNE,32,0.0,1.0,86,0.00,,,0.00,Wunderground v.1.15,2013-04-04 10:10:00,
2013-04-04 04:16:00,35.1,30.8,30.04,NNE,32,0.0,1.0,84,0.00,,,0.00,Wunderground v.1.15,2013-04-04 10:16:00,
2013-04-04 04:21:00,34.6,30.6,30.04,NNE,32,0.0,1.0,85,0.00,,,0.00,Wunderground v.1.15,2013-04-04 10:21:00,
2013-04-04 04:26:00,34.3,30.3,30.04,NNE,32,0.0,1.0,85,0.00,,,0.00,Wunderground v.1.15,2013-04-04 10:26:00,
2013-04-04 04:31:00,34.1,30.1,30.04,NNE,32,0.0,1.0,85,0.00,,,0.00,Wunderground v.1.15,2013-04-04 10:31:00,
2013-04-04 04:36:00,34.4,30.9,30.05,NNE,32,0.0,1.0,87,0.00,,,0.00,Wunderground v.1.15,2013-04-04 10:36:00,
2013-04-04 04:42:00,34.8,31.0,30.05,NNE,32,0.0,1.0,86,0.00,,,0.00,Wunderground v.1.15,2013-04-04 10:42:00,
2013-04-04 04:47:00,34.7,31.2,30.05,NNE,32,0.0,1.0,87,0.00,,,0.00,Wunderground v.1.15,2013-04-04 10:47:00,
2013-04-04 04:52:00,34.8,31.3,30.05,NNE,32,0.0,1.0,87,0.00,,,0.00,Wunderground v.1.15,2013-04-04 10:52:00,
2013-04-04 04:57:00,34.5,31.0,30.05,NNE,32,0.0,1.0,87,0.00,,,0.00,Wunderground v.1.15,2013-04-04 10:57:00,
2013-04-04 05:02:00,34.4,30.9,30.05,NNE,32,0.0,1.0,87,0.00,,,0.00,Wunderground v.1.15,2013-04-04 11:02:00,
2013-04-04 05:08:00,34.5,31.0,30.05,NNE,32,0.0,1.0,87,0.00,,,0.00,Wunderground v.1.15,2013-04-04 11:08:00,
2013-04-04 05:14:00,34.9,31.4,30.05,NNE,32,0.0,1.0,87,0.00,,,0.00,Wunderground v.1.15,2013-04-04 11:14:00,
2013-04-04 05:20:00,35.2,33.1,30.04,NNE,32,0.0,1.0,92,0.00,,,0.00,Wunderground v.1.15,2013-04-04 11:20:00,
2013-04-04 05:26:00,34.9,31.4,30.04,NNE,32,0.0,1.0,87,0.00,,,0.00,Wunderground v.1.15,2013-04-04 11:26:00,
2013-04-04 05:31:00,35.0,31.5,30.04,NNE,32,0.0,1.0,87,0.00,,,0.00,Wunderground v.1.15,2013-04-04 11:31:00,
2013-04-04 05:37:00,35.1,31.3,30.04,NNE,32,0.0,1.0,86,0.00,,,0.00,Wunderground v.1.15,2013-04-04 11:37:00,
2013-04-04 05:42:00,34.2,30.2,30.04,NNE,32,0.0,1.0,85,0.00,,,0.00,Wunderground v.1.15,2013-04-04 11:42:00,
2013-04-04 05:48:00,32.9,29.5,30.04,NNE,32,0.0,1.0,87,0.00,,,0.00,Wunderground v.1.15,2013-04-04 11:48:00,
2013-04-04 05:53:00,33.2,30.3,30.04,NNE,32,0.0,1.0,89,0.00,,,0.00,Wunderground v.1.15,2013-04-04 11:53:00,
2013-04-04 05:59:00,33.5,30.6,30.03,NNE,32,0.0,1.0,89,0.00,,,0.00,Wunderground v.1.15,2013-04-04 11:59:00,
2013-04-04 06:04:00,33.7,30.8,30.04,NNE,32,0.0,1.0,89,0.00,,,0.00,Wunderground v.1.15,2013-04-04 12:04:00,
2013-04-04 06:10:00,33.8,30.9,30.04,NNE,32,0.0,1.0,89,0.00,,,0.00,Wunderground v.1.15,2013-04-04 12:10:00,
2013-04-04 06:15:00,33.5,30.3,30.03,NNE,32,0.0,1.0,88,0.00,,,0.00,Wunderground v.1.15,2013-04-04 12:15:00,
2013-04-04 06:21:00,33.3,30.4,30.03,NNE,32,0.0,1.0,89,0.00,,,0.00,Wunderground v.1.15,2013-04-04 12:21:00,
2013-04-04 06:27:00,33.0,29.8,30.03,NNE,32,0.0,1.0,88,0.00,,,0.00,Wunderground v.1.15,2013-04-04 12:27:00,
2013-04-04 06:32:00,32.7,30.1,30.03,NNE,32,0.0,1.0,90,0.00,,,0.00,Wunderground v.1.15,2013-04-04 12:32:00,
2013-04-04 06:38:00,32.6,29.7,30.02,NNE,32,0.0,1.0,89,0.00,,,0.00,Wunderground v.1.15,2013-04-04 12:38:00,
2013-04-04 06:43:00,32.6,30.0,30.02,NNE,32,0.0,1.0,90,0.00,,,0.00,Wunderground v.1.15,2013-04-04 12:43:00,
2013-04-04 06:49:00,32.8,30.2,30.02,NNE,32,0.0,1.0,90,0.00,,,0.00,Wunderground v.1.15,2013-04-04 12:49:00,
2013-04-04 06:55:00,32.5,29.9,30.02,NNE,32,0.0,1.0,90,0.00,,,0.00,Wunderground v.1.15,2013-04-04 12:55:00,
2013-04-04 07:00:00,32.5,29.9,30.02,NNE,32,0.0,1.0,90,0.00,,,0.00,Wunderground v.1.15,2013-04-04 13:00:00,
2013-04-04 07:06:00,32.2,29.6,30.02,NNE,32,0.0,1.0,90,0.00,,,0.00,Wunderground v.1.15,2013-04-04 13:06:00,
2013-04-04 07:11:00,32.2,29.9,30.02,NNE,32,0.0,1.0,91,0.00,,,0.00,Wunderground v.1.15,2013-04-04 13:11:00,
2013-04-04 07:17:00,32.2,29.6,30.02,NNE,32,0.0,1.0,90,0.00,,,0.00,Wunderground v.1.15,2013-04-04 13:17:00,
2013-04-04 07:23:00,32.7,30.6,30.02,NNE,32,0.0,1.0,92,0.00,,,0.00,Wunderground v.1.15,2013-04-04 13:23:00,
2013-04-04 07:29:00,32.9,30.6,30.02,NNE,32,0.0,1.0,91,0.00,,,0.00,Wunderground v.1.15,2013-04-04 13:29:00,
2013-04-04 07:34:00,32.8,30.2,30.02,NNE,32,0.0,1.0,90,0.00,,,0.00,Wunderground v.1.15,2013-04-04 13:34:00,
2013-04-04 07:39:00,32.2,29.3,30.02,NNE,32,0.0,1.0,89,0.00,,,0.00,Wunderground v.1.15,2013-04-04 13:39:00,
2013-04-04 07:45:00,31.9,29.6,30.02,NNE,32,0.0,1.0,91,0.00,,,0.00,Wunderground v.1.15,2013-04-04 13:45:00,
2013-04-04 07:51:00,32.8,30.7,30.02,NNE,32,0.0,1.0,92,0.00,,,0.00,Wunderground v.1.15,2013-04-04 13:51:00,
2013-04-04 07:57:00,33.5,31.2,30.02,NNE,32,0.0,1.0,91,0.00,,,0.00,Wunderground v.1.15,2013-04-04 13:57:00,
2013-04-04 08:02:00,33.8,31.5,30.02,NNE,32,0.0,1.0,91,0.00,,,0.00,Wunderground v.1.15,2013-04-04 14:02:00,
2013-04-04 08:08:00,33.9,31.3,30.02,NNE,32,0.0,1.0,90,0.00,,,0.00,Wunderground v.1.15,2013-04-04 14:08:00,
2013-04-04 08:14:00,33.9,31.3,30.01,NNE,32,0.0,1.0,90,0.00,,,0.00,Wunderground v.1.15,2013-04-04 14:14:00,
2013-04-04 08:20:00,33.9,31.3,30.01,NNE,32,0.0,1.0,90,0.00,,,0.00,Wunderground v.1.15,2013-04-04 14:20:00,
2013-04-04 08:26:00,34.2,31.8,30.01,NNE,32,0.0,1.0,91,0.00,,,0.00,Wunderground v.1.15,2013-04-04 14:26:00,
2013-04-04 08:31:00,34.8,32.2,30.01,NNE,32,0.0,1.0,90,0.00,,,0.00,Wunderground v.1.15,2013-04-04 14:31:00,
2013-04-04 08:36:00,34.6,32.0,30.01,NNE,32,0.0,1.0,90,0.00,,,0.00,Wunderground v.1.15,2013-04-04 14:36:00,
2013-04-04 08:42:00,34.7,32.1,30.01,NNE,32,0.0,1.0,90,0.00,,,0.00,Wunderground v.1.15,2013-04-04 14:42:00,
2013-04-04 08:47:00,34.8,32.2,30.01,NNE,32,0.0,1.0,90,0.00,,,0.00,Wunderground v.1.15,2013-04-04 14:47:00,
2013-04-04 08:53:00,35.0,32.1,30.01,NNE,32,0.0,1.0,89,0.00,,,0.00,Wunderground v.1.15,2013-04-04 14:53:00,
2013-04-04 08:59:00,35.5,32.6,30.01,NNE,32,0.0,1.0,89,0.00,,,0.00,Wunderground v.1.15,2013-04-04 14:59:00,
2013-04-04 09:05:00,36.2,33.3,30.00,NNE,32,0.0,1.0,89,0.00,,,0.00,Wunderground v.1.15,2013-04-04 15:05:00,
2013-04-04 09:11:00,37.5,34.3,30.00,NNE,32,0.0,1.0,88,0.00,,,0.00,Wunderground v.1.15,2013-04-04 15:11:00,
2013-04-04 09:17:00,38.6,34.8,30.00,NNE,32,0.0,1.0,86,0.00,,,0.00,Wunderground v.1.15,2013-04-04 15:17:00,
2013-04-04 09:23:00,39.5,35.7,30.00,NNE,32,0.0,1.0,86,0.00,,,0.00,Wunderground v.1.15,2013-04-04 15:23:00,
2013-04-04 09:28:00,40.1,36.0,30.00,NNE,32,0.0,1.0,85,0.00,,,0.00,Wunderground v.1.15,2013-04-04 15:28:00,
2013-04-04 09:33:00,41.2,38.2,29.99,NNE,32,0.0,1.0,89,0.00,,,0.00,Wunderground v.1.15,2013-04-04 15:33:00,
2013-04-04 09:39:00,42.3,36.9,29.99,NNE,32,0.0,1.0,81,0.00,,,0.00,Wunderground v.1.15,2013-04-04 15:39:00,
2013-04-04 09:44:00,42.6,36.9,29.99,NNE,32,0.0,1.0,80,0.00,,,0.00,Wunderground v.1.15,2013-04-04 15:44:00,
2013-04-04 09:49:00,43.1,36.7,29.99,NNE,32,0.0,1.0,78,0.00,,,0.00,Wunderground v.1.15,2013-04-04 15:49:00,
2013-04-04 09:55:00,43.7,37.3,29.99,NNE,32,0.0,1.0,78,0.00,,,0.00,Wunderground v.1.15,2013-04-04 15:55:00,
2013-04-04 10:00:00,44.8,37.0,29.99,NNE,32,0.0,1.0,74,0.00,,,0.00,Wunderground v.1.15,2013-04-04 16:00:00,
2013-04-04 10:06:00,45.4,35.5,29.99,East,90,0.0,2.0,68,0.00,,,0.00,Wunderground v.1.15,2013-04-04 16:06:00,
2013-04-04 10:11:00,45.8,36.6,29.99,East,94,1.0,1.0,70,0.00,,,0.00,Wunderground v.1.15,2013-04-04 16:11:00,
2013-04-04 10:16:00,46.6,36.6,29.98,SE,135,0.0,2.0,68,0.00,,,0.00,Wunderground v.1.15,2013-04-04 16:16:00,
2013-04-04 10:22:00,47.5,36.7,29.98,SE,135,0.0,1.0,66,0.00,,,0.00,Wunderground v.1.15,2013-04-04 16:22:00,
2013-04-04 10:28:00,47.9,36.7,29.98,SE,135,0.0,1.0,65,0.00,,,0.00,Wunderground v.1.15,2013-04-04 16:28:00,
2013-04-04 10:33:00,48.0,36.4,29.98,SE,134,0.0,1.0,64,0.00,,,0.00,Wunderground v.1.15,2013-04-04 16:33:00,
2013-04-04 10:38:00,48.0,36.4,29.98,SE,134,0.0,1.0,64,0.00,,,0.00,Wunderground v.1.15,2013-04-04 16:38:00,
2013-04-04 10:43:00,48.2,38.1,29.98,SE,134,0.0,1.0,68,0.00,,,0.00,Wunderground v.1.15,2013-04-04 16:43:00,
2013-04-04 10:49:00,48.4,36.0,29.98,SE,134,0.0,1.0,62,0.00,,,0.00,Wunderground v.1.15,2013-04-04 16:49:00,
2013-04-04 10:54:00,48.5,36.1,29.98,South,177,0.0,2.0,62,0.00,,,0.00,Wunderground v.1.15,2013-04-04 16:54:00,
2013-04-04 11:00:00,48.7,35.8,29.98,SE,132,1.0,1.0,61,0.00,,,0.00,Wunderground v.1.15,2013-04-04 17:00:00,
2013-04-04 11:06:00,48.6,36.2,29.97,SSE,158,0.0,1.0,62,0.00,,,0.00,Wunderground v.1.15,2013-04-04 17:06:00,
2013-04-04 11:11:00,48.9,36.4,29.97,SW,227,0.0,1.0,62,0.00,,,0.00,Wunderground v.1.15,2013-04-04 17:11:00,
2013-04-04 11:16:00,48.6,35.7,29.96,SSW,209,0.0,1.0,61,0.00,,,0.00,Wunderground v.1.15,2013-04-04 17:16:00,
2013-04-04 11:22:00,48.9,35.6,29.96,SSW,209,0.0,1.0,60,0.00,,,0.00,Wunderground v.1.15,2013-04-04 17:22:00,
2013-04-04 11:27:00,49.6,35.8,29.96,SSW,209,0.0,1.0,59,0.00,,,0.00,Wunderground v.1.15,2013-04-04 17:27:00,
2013-04-04 11:33:00,49.8,36.0,29.96,South,178,0.0,1.0,59,0.00,,,0.00,Wunderground v.1.15,2013-04-04 17:33:00,
2013-04-04 11:39:00,50.2,36.0,29.96,South,178,0.0,1.0,58,0.00,,,0.00,Wunderground v.1.15,2013-04-04 17:39:00,
2013-04-04 11:44:00,49.8,35.6,29.96,South,187,0.0,3.0,58,0.00,,,0.00,Wunderground v.1.15,2013-04-04 17:44:00,
2013-04-04 11:50:00,50.1,35.9,29.95,South,185,1.0,2.0,58,0.00,,,0.00,Wunderground v.1.15,2013-04-04 17:50:00,
2013-04-04 11:55:00,50.1,35.4,29.95,South,185,1.0,2.0,57,0.00,,,0.00,Wunderground v.1.15,2013-04-04 17:55:00,
2013-04-04 12:00:00,51.1,36.8,29.95,SE,137,1.0,1.0,58,0.00,,,0.00,Wunderground v.1.15,2013-04-04 18:00:00,
2013-04-04 12:05:00,51.6,36.9,29.94,SSW,193,0.0,1.0,57,0.00,,,0.00,Wunderground v.1.15,2013-04-04 18:05:00,
2013-04-04 12:10:00,50.9,35.7,29.94,NE,38,1.0,1.0,56,0.00,,,0.00,Wunderground v.1.15,2013-04-04 18:10:00,
2013-04-04 12:15:00,50.8,35.7,29.94,West,264,1.0,2.0,56,0.00,,,0.00,Wunderground v.1.15,2013-04-04 18:15:00,
2013-04-04 12:21:00,51.1,36.8,29.94,West,264,1.0,1.0,58,0.00,,,0.00,Wunderground v.1.15,2013-04-04 18:21:00,
2013-04-04 12:27:00,51.8,37.0,29.94,West,264,0.0,1.0,57,0.00,,,0.00,Wunderground v.1.15,2013-04-04 18:27:00,
2013-04-04 12:33:00,52.1,36.9,29.94,West,264,0.0,1.0,56,0.00,,,0.00,Wunderground v.1.15,2013-04-04 18:33:00,
2013-04-04 12:39:00,52.0,36.8,29.93,West,265,0.0,1.0,56,0.00,,,0.00,Wunderground v.1.15,2013-04-04 18:39:00,
2013-04-04 12:45:00,52.1,37.3,29.93,West,265,0.0,1.0,57,0.00,,,0.00,Wunderground v.1.15,2013-04-04 18:45:00,
2013-04-04 12:50:00,52.2,36.5,29.93,West,265,0.0,1.0,55,0.00,,,0.00,Wunderground v.1.15,2013-04-04 18:50:00,
2013-04-04 12:55:00,52.6,36.9,29.92,West,265,0.0,1.0,55,0.00,,,0.00,Wunderground v.1.15,2013-04-04 18:55:00,
2013-04-04 13:00:00,52.8,37.1,29.92,SSE,152,0.0,2.0,55,0.00,,,0.00,Wunderground v.1.15,2013-04-04 19:00:00,
2013-04-04 13:06:00,52.8,37.1,29.92,SSW,206,0.0,2.0,55,0.00,,,0.00,Wunderground v.1.15,2013-04-04 19:06:00,
2013-04-04 13:12:00,53.1,36.9,29.91,WSW,245,0.0,1.0,54,0.00,,,0.00,Wunderground v.1.15,2013-04-04 19:12:00,
2013-04-04 13:18:00,53.9,38.1,29.91,WSW,244,0.0,1.0,55,0.00,,,0.00,Wunderground v.1.15,2013-04-04 19:18:00,
2013-04-04 13:24:00,54.3,37.5,29.90,West,278,0.0,2.0,53,0.00,,,0.00,Wunderground v.1.15,2013-04-04 19:24:00,
2013-04-04 13:30:00,54.1,37.3,29.90,West,281,0.0,1.0,53,0.00,,,0.00,Wunderground v.1.15,2013-04-04 19:30:00,
2013-04-04 13:36:00,54.1,36.9,29.90,West,281,0.0,1.0,52,0.00,,,0.00,Wunderground v.1.15,2013-04-04 19:36:00,
2013-04-04 13:41:00,53.6,36.4,29.89,West,281,0.0,1.0,52,0.00,,,0.00,Wunderground v.1.15,2013-04-04 19:41:00,
2013-04-04 13:46:00,54.1,36.9,29.89,West,281,0.0,2.0,52,0.00,,,0.00,Wunderground v.1.15,2013-04-04 19:46:00,
2013-04-04 13:52:00,54.6,36.8,29.89,West,281,0.0,1.0,51,0.00,,,0.00,Wunderground v.1.15,2013-04-04 19:52:00,
2013-04-04 13:57:00,54.7,36.9,29.88,West,281,0.0,1.0,51,0.00,,,0.00,Wunderground v.1.15,2013-04-04 19:57:00,
2013-04-04 14:02:00,54.9,36.6,29.89,West,281,0.0,1.0,50,0.00,,,0.00,Wunderground v.1.15,2013-04-04 20:02:00,
2013-04-04 14:08:00,55.1,36.8,29.88,South,189,1.0,2.0,50,0.00,,,0.00,Wunderground v.1.15,2013-04-04 20:08:00,
2013-04-04 14:13:00,56.1,36.7,29.88,South,189,1.0,1.0,48,0.00,,,0.00,Wunderground v.1.15,2013-04-04 20:13:00,
2013-04-04 14:18:00,56.7,36.7,29.88,ESE,121,1.0,2.0,47,0.00,,,0.00,Wunderground v.1.15,2013-04-04 20:18:00,
2013-04-04 14:25:00,57.5,37.9,29.87,SSE,158,1.0,1.0,48,0.00,,,0.00,Wunderground v.1.15,2013-04-04 20:25:00,
2013-04-04 14:30:00,57.3,37.8,29.87,East,101,1.0,1.0,48,0.00,,,0.00,Wunderground v.1.15,2013-04-04 20:30:00,
2013-04-04 14:36:00,57.1,35.9,29.87,ESE,108,1.0,1.0,45,0.00,,,0.00,Wunderground v.1.15,2013-04-04 20:36:00,
2013-04-04 14:41:00,56.8,36.2,29.86,ESE,109,0.0,1.0,46,0.00,,,0.00,Wunderground v.1.15,2013-04-04 20:41:00,
2013-04-04 14:47:00,57.4,36.8,29.86,South,172,0.0,1.0,46,0.00,,,0.00,Wunderground v.1.15,2013-04-04 20:47:00,
2013-04-04 14:53:00,57.2,36.6,29.85,South,171,0.0,1.0,46,0.00,,,0.00,Wunderground v.1.15,2013-04-04 20:53:00,
2013-04-04 14:58:00,57.8,35.4,29.85,NNW,331,0.0,2.0,43,0.00,,,0.00,Wunderground v.1.15,2013-04-04 20:58:00,
2013-04-04 15:03:00,58.0,36.2,29.85,WSW,241,1.0,2.0,44,0.00,,,0.00,Wunderground v.1.15,2013-04-04 21:03:00,
2013-04-04 15:09:00,57.3,35.6,29.85,SSW,209,0.0,2.0,44,0.00,,,0.00,Wunderground v.1.15,2013-04-04 21:09:00,
2013-04-04 15:15:00,57.9,36.1,29.84,North,349,0.0,1.0,44,0.00,,,0.00,Wunderground v.1.15,2013-04-04 21:15:00,
2013-04-04 15:21:00,57.8,36.6,29.84,North,349,0.0,1.0,45,0.00,,,0.00,Wunderground v.1.15,2013-04-04 21:21:00,
2013-04-04 15:26:00,58.0,36.8,29.84,NNE,23,0.0,1.0,45,0.00,,,0.00,Wunderground v.1.15,2013-04-04 21:26:00,
2013-04-04 15:32:00,57.5,35.2,29.84,NNE,23,0.0,1.0,43,0.00,,,0.00,Wunderground v.1.15,2013-04-04 21:32:00,
2013-04-04 15:37:00,57.3,36.1,29.84,NNE,23,0.0,1.0,45,0.00,,,0.00,Wunderground v.1.15,2013-04-04 21:37:00,
2013-04-04 15:42:00,57.2,35.5,29.83,NNE,23,0.0,1.0,44,0.00,,,0.00,Wunderground v.1.15,2013-04-04 21:42:00,
2013-04-04 15:48:00,57.7,36.5,29.83,NNE,23,0.0,1.0,45,0.00,,,0.00,Wunderground v.1.15,2013-04-04 21:48:00,
2013-04-04 15:54:00,57.7,36.5,29.83,SSE,163,1.0,2.0,45,0.00,,,0.00,Wunderground v.1.15,2013-04-04 21:54:00,
2013-04-04 16:00:00,58.2,36.9,29.83,SSE,163,1.0,1.0,45,0.00,,,0.00,Wunderground v.1.15,2013-04-04 22:00:00,
2013-04-04 16:06:00,58.4,37.1,29.82,SSE,163,0.0,1.0,45,0.00,,,0.00,Wunderground v.1.15,2013-04-04 22:06:00,
2013-04-04 16:12:00,58.6,36.2,29.82,SSE,163,0.0,1.0,43,0.00,,,0.00,Wunderground v.1.15,2013-04-04 22:12:00,
2013-04-04 16:18:00,58.7,36.8,29.82,SSW,200,1.0,4.0,44,0.00,,,0.00,Wunderground v.1.15,2013-04-04 22:18:00,
2013-04-04 16:23:00,58.4,36.6,29.82,East,100,1.0,1.0,44,0.00,,,0.00,Wunderground v.1.15,2013-04-04 22:23:00,
2013-04-04 16:29:00,58.7,36.8,29.81,East,100,0.0,1.0,44,0.00,,,0.00,Wunderground v.1.15,2013-04-04 22:29:00,
2013-04-04 16:34:00,58.0,35.6,29.81,SSW,213,0.0,1.0,43,0.00,,,0.00,Wunderground v.1.15,2013-04-04 22:34:00,
2013-04-04 16:40:00,58.3,35.9,29.81,South,184,1.0,1.0,43,0.00,,,0.00,Wunderground v.1.15,2013-04-04 22:40:00,
2013-04-04 16:45:00,58.2,35.8,29.81,South,184,1.0,1.0,43,0.00,,,0.00,Wunderground v.1.15,2013-04-04 22:45:00,
2013-04-04 16:51:00,58.5,36.1,29.80,SSW,201,1.0,2.0,43,0.00,,,0.00,Wunderground v.1.15,2013-04-04 22:51:00,
2013-04-04 16:57:00,58.4,36.6,29.80,South,186,1.0,4.0,44,0.00,,,0.00,Wunderground v.1.15,2013-04-04 22:57:00,
2013-04-04 17:02:00,58.3,37.0,29.80,South,186,0.0,1.0,45,0.00,,,0.00,Wunderground v.1.15,2013-04-04 23:02:00,
2013-04-04 17:07:00,58.1,37.4,29.80,South,186,0.0,1.0,46,0.00,,,0.00,Wunderground v.1.15,2013-04-04 23:07:00,
2013-04-04 17:13:00,57.9,38.3,29.80,South,186,0.0,1.0,48,0.00,,,0.00,Wunderground v.1.15,2013-04-04 23:13:00,
2013-04-04 17:19:00,57.7,38.1,29.80,East,80,1.0,1.0,48,0.00,,,0.00,Wunderground v.1.15,2013-04-04 23:19:00,
2013-04-04 17:25:00,57.7,38.1,29.80,South,178,1.0,4.0,48,0.00,,,0.00,Wunderground v.1.15,2013-04-04 23:25:00,
2013-04-04 17:31:00,57.3,39.8,29.81,SSW,197,1.0,4.0,52,0.00,,,0.00,Wunderground v.1.15,2013-04-04 23:31:00,
2013-04-04 17:37:00,56.6,39.7,29.81,South,190,2.0,9.0,53,0.00,,,0.00,Wunderground v.1.15,2013-04-04 23:37:00,
2013-04-04 17:42:00,55.8,41.2,29.81,WSW,238,2.0,2.0,58,0.00,,,0.00,Wunderground v.1.15,2013-04-04 23:42:00,
2013-04-04 17:47:00,55.3,42.1,29.81,SSW,193,1.0,4.0,61,0.00,,,0.00,Wunderground v.1.15,2013-04-04 23:47:00,
2013-04-04 17:53:00,54.1,42.6,29.80,SSW,213,1.0,2.0,65,0.00,,,0.00,Wunderground v.1.15,2013-04-04 23:53:00,
2013-04-04 17:59:00,53.0,43.8,29.80,SSW,213,0.0,2.0,71,0.00,,,0.00,Wunderground v.1.15,2013-04-04 23:59:00,
2013-04-04 18:04:00,52.1,44.8,29.80,SSW,213,0.0,1.0,76,0.00,,,0.00,Wunderground v.1.15,2013-04-05 00:04:00,
2013-04-04 18:10:00,51.3,45.7,29.80,SSW,213,0.0,1.0,81,0.00,,,0.01,Wunderground v.1.15,2013-04-05 00:10:00,
2013-04-04 18:15:00,50.6,45.6,29.80,SSW,213,0.0,1.0,83,0.00,,,0.01,Wunderground v.1.15,2013-04-05 00:15:00,
2013-04-04 18:21:00,50.1,46.1,29.80,SSW,213,0.0,1.0,86,0.00,,,0.01,Wunderground v.1.15,2013-04-05 00:21:00,
2013-04-04 18:26:00,49.9,46.2,29.80,SSW,213,0.0,1.0,87,0.00,,,0.01,Wunderground v.1.15,2013-04-05 00:26:00,
2013-04-04 18:32:00,49.6,46.2,29.79,SSW,213,0.0,1.0,88,0.00,,,0.02,Wunderground v.1.15,2013-04-05 00:32:00,
2013-04-04 18:37:00,49.4,46.3,29.79,SSW,213,0.0,1.0,89,0.00,,,0.02,Wunderground v.1.15,2013-04-05 00:37:00,
2013-04-04 18:42:00,49.1,46.3,29.79,SSW,213,0.0,1.0,90,0.00,,,0.02,Wunderground v.1.15,2013-04-05 00:42:00,
2013-04-04 18:48:00,49.0,46.5,29.79,SSW,213,0.0,1.0,91,0.00,,,0.02,Wunderground v.1.15,2013-04-05 00:48:00,
2013-04-04 18:54:00,48.9,46.7,29.79,SSW,213,0.0,1.0,92,0.00,,,0.02,Wunderground v.1.15,2013-04-05 00:54:00,
2013-04-04 19:01:00,48.8,46.6,29.79,SSW,213,0.0,1.0,92,0.00,,,0.02,Wunderground v.1.15,2013-04-05 01:01:00,
2013-04-04 19:07:00,48.8,46.9,29.79,SSW,213,0.0,1.0,93,0.00,,,0.03,Wunderground v.1.15,2013-04-05 01:07:00,
2013-04-04 19:13:00,48.6,46.4,29.79,SSW,213,0.0,1.0,92,0.00,,,0.03,Wunderground v.1.15,2013-04-05 01:13:00,
2013-04-04 19:18:00,48.4,46.5,29.79,SSW,213,0.0,1.0,93,0.00,,,0.03,Wunderground v.1.15,2013-04-05 01:18:00,
2013-04-04 19:23:00,48.3,46.4,29.78,SSW,213,0.0,1.0,93,0.00,,,0.03,Wunderground v.1.15,2013-04-05 01:23:00,
2013-04-04 19:29:00,48.3,46.4,29.78,SSW,213,0.0,1.0,93,0.00,,,0.04,Wunderground v.1.15,2013-04-05 01:29:00,
2013-04-04 19:34:00,48.2,46.3,29.78,SSW,213,0.0,1.0,93,0.00,,,0.04,Wunderground v.1.15,2013-04-05 01:34:00,
2013-04-04 19:40:00,48.1,46.5,29.78,SSW,213,0.0,1.0,94,0.00,,,0.04,Wunderground v.1.15,2013-04-05 01:40:00,
2013-04-04 19:46:00,48.0,46.4,29.78,SSW,213,0.0,1.0,94,0.00,,,0.04,Wunderground v.1.15,2013-04-05 01:46:00,
2013-04-04 19:52:00,47.8,46.2,29.77,SSW,213,0.0,1.0,94,0.00,,,0.04,Wunderground v.1.15,2013-04-05 01:52:00,
2013-04-04 19:57:00,47.5,45.6,29.77,SSW,213,0.0,1.0,93,0.00,,,0.04,Wunderground v.1.15,2013-04-05 01:57:00,
2013-04-04 20:03:00,47.0,45.1,29.77,SSW,213,0.0,1.0,93,0.00,,,0.04,Wunderground v.1.15,2013-04-05 02:03:00,
2013-04-04 20:09:00,46.7,44.8,29.77,SSW,213,0.0,1.0,93,0.00,,,0.04,Wunderground v.1.15,2013-04-05 02:09:00,
2013-04-04 20:14:00,46.4,44.8,29.77,SSW,213,0.0,1.0,94,0.00,,,0.04,Wunderground v.1.15,2013-04-05 02:14:00,
2013-04-04 20:20:00,46.1,44.5,29.76,SSW,213,0.0,1.0,94,0.00,,,0.04,Wunderground v.1.15,2013-04-05 02:20:00,
2013-04-04 20:25:00,45.9,44.3,29.76,SSW,213,0.0,1.0,94,0.00,,,0.04,Wunderground v.1.15,2013-04-05 02:25:00,
2013-04-04 20:31:00,45.6,44.0,29.76,SSW,213,0.0,1.0,94,0.00,,,0.04,Wunderground v.1.15,2013-04-05 02:31:00,
2013-04-04 20:37:00,45.4,43.8,29.76,SSW,213,0.0,1.0,94,0.00,,,0.04,Wunderground v.1.15,2013-04-05 02:37:00,
2013-04-04 20:43:00,45.2,43.6,29.76,SSW,213,0.0,1.0,94,0.00,,,0.04,Wunderground v.1.15,2013-04-05 02:43:00,
2013-04-04 20:47:00,45.2,43.6,29.76,SSW,213,0.0,1.0,94,0.00,,,0.04,Wunderground v.1.15,2013-04-05 02:47:00,
2013-04-04 20:53:00,45.1,43.5,29.76,SSW,213,0.0,1.0,94,0.00,,,0.04,Wunderground v.1.15,2013-04-05 02:53:00,
2013-04-04 20:59:00,44.9,43.3,29.75,SSW,213,0.0,1.0,94,0.00,,,0.04,Wunderground v.1.15,2013-04-05 02:59:00,
2013-04-04 21:04:00,44.9,43.3,29.75,SSW,213,0.0,1.0,94,0.00,,,0.05,Wunderground v.1.15,2013-04-05 03:04:00,
2013-04-04 21:09:00,44.7,43.1,29.75,SSW,213,0.0,1.0,94,0.00,,,0.05,Wunderground v.1.15,2013-04-05 03:09:00,
2013-04-04 21:14:00,44.6,43.0,29.75,SSW,213,0.0,1.0,94,0.00,,,0.05,Wunderground v.1.15,2013-04-05 03:14:00,
2013-04-04 21:20:00,44.5,43.2,29.75,SSW,213,0.0,1.0,95,0.00,,,0.05,Wunderground v.1.15,2013-04-05 03:20:00,
2013-04-04 21:25:00,44.5,43.2,29.75,SSW,213,0.0,1.0,95,0.00,,,0.05,Wunderground v.1.15,2013-04-05 03:25:00,
2013-04-04 21:30:00,44.5,43.2,29.75,SSW,213,0.0,1.0,95,0.00,,,0.05,Wunderground v.1.15,2013-04-05 03:30:00,
2013-04-04 21:35:00,44.6,43.3,29.75,SSW,213,0.0,1.0,95,0.00,,,0.05,Wunderground v.1.15,2013-04-05 03:35:00,
2013-04-04 21:41:00,44.8,43.5,29.75,SSW,213,0.0,1.0,95,0.00,,,0.05,Wunderground v.1.15,2013-04-05 03:41:00,
2013-04-04 21:47:00,45.0,43.7,29.75,SSW,213,0.0,1.0,95,0.00,,,0.05,Wunderground v.1.15,2013-04-05 03:47:00,
2013-04-04 21:52:00,44.9,43.6,29.75,SSW,213,0.0,1.0,95,0.00,,,0.05,Wunderground v.1.15,2013-04-05 03:52:00,
2013-04-04 21:58:00,45.1,43.8,29.75,SSW,213,0.0,1.0,95,0.00,,,0.05,Wunderground v.1.15,2013-04-05 03:58:00,
2013-04-04 22:00:00,45.2,43.9,29.75,SSW,213,0.0,1.0,95,0.00,,,0.05,Wunderground v.1.15,2013-04-05 04:00:00,
2013-04-04 22:03:00,45.1,43.8,29.75,SSW,213,0.0,1.0,95,0.00,,,0.05,Wunderground v.1.15,2013-04-05 04:03:00,
2013-04-04 22:04:00,45.1,43.8,29.75,SSW,213,0.0,1.0,95,0.00,,,0.05,Wunderground v.1.15,2013-04-05 04:04:00,
2013-04-04 22:09:00,45.0,43.7,29.75,SSW,213,0.0,1.0,95,0.00,,,0.05,Wunderground v.1.15,2013-04-05 04:09:00,
2013-04-04 22:15:00,45.0,43.7,29.75,SSW,213,0.0,1.0,95,0.00,,,0.05,Wunderground v.1.15,2013-04-05 04:15:00,
2013-04-04 22:21:00,45.1,43.8,29.75,SSW,213,0.0,1.0,95,0.00,,,0.05,Wunderground v.1.15,2013-04-05 04:21:00,
2013-04-04 22:27:00,45.6,44.5,29.75,SSW,213,0.0,1.0,96,0.00,,,0.05,Wunderground v.1.15,2013-04-05 04:27:00,
2013-04-04 22:32:00,45.6,44.3,29.76,SSW,213,0.0,1.0,95,0.00,,,0.05,Wunderground v.1.15,2013-04-05 04:32:00,
2013-04-04 22:38:00,45.9,44.5,29.76,SSW,213,0.0,1.0,95,0.00,,,0.05,Wunderground v.1.15,2013-04-05 04:38:00,
2013-04-04 22:43:00,46.0,44.9,29.76,SSW,213,0.0,1.0,96,0.00,,,0.05,Wunderground v.1.15,2013-04-05 04:43:00,
2013-04-04 22:48:00,46.1,45.0,29.76,SSW,213,0.0,1.0,96,0.00,,,0.05,Wunderground v.1.15,2013-04-05 04:48:00,
2013-04-04 22:54:00,46.1,45.0,29.76,SSW,213,0.0,1.0,96,0.00,,,0.05,Wunderground v.1.15,2013-04-05 04:54:00,
2013-04-04 23:00:00,46.0,44.9,29.76,SSW,213,0.0,1.0,96,0.00,,,0.05,Wunderground v.1.15,2013-04-05 05:00:00,
2013-04-04 23:06:00,45.6,44.3,29.76,SSW,213,0.0,1.0,95,0.00,,,0.05,Wunderground v.1.15,2013-04-05 05:06:00,
2013-04-04 23:12:00,45.2,44.1,29.76,SSW,213,0.0,1.0,96,0.00,,,0.05,Wunderground v.1.15,2013-04-05 05:12:00,
2013-04-04 23:17:00,45.1,44.0,29.76,SSW,213,0.0,1.0,96,0.00,,,0.05,Wunderground v.1.15,2013-04-05 05:17:00,
2013-04-04 23:22:00,45.0,43.9,29.76,SSW,213,0.0,1.0,96,0.00,,,0.05,Wunderground v.1.15,2013-04-05 05:22:00,
2013-04-04 23:28:00,44.9,43.8,29.75,SSW,213,0.0,1.0,96,0.00,,,0.05,Wunderground v.1.15,2013-04-05 05:28:00,
2013-04-04 23:34:00,44.9,43.8,29.75,SSW,213,0.0,1.0,96,0.00,,,0.05,Wunderground v.1.15,2013-04-05 05:34:00,
2013-04-04 23:39:00,44.8,43.7,29.75,SSW,213,0.0,1.0,96,0.00,,,0.05,Wunderground v.1.15,2013-04-05 05:39:00,
2013-04-04 23:45:00,44.7,43.6,29.75,SSW,213,0.0,1.0,96,0.00,,,0.05,Wunderground v.1.15,2013-04-05 05:45:00,
2013-04-04 23:50:00,44.6,43.5,29.75,SSW,213,0.0,1.0,96,0.00,,,0.05,Wunderground v.1.15,2013-04-05 05:50:00,
2013-04-04 23:56:00,44.4,43.3,29.75,SSW,213,0.0,1.0,96,0.00,,,0.05,Wunderground v.1.15,2013-04-05 05:56:00,